User: anonymous   Login
Location: *
(49.9853°N, 3.5569°E)
Time: 17:57:32
(UTC+00:00)
Language:

USA 186 - Orbit

View from above orbital plane
View from above orbital plane
View from above satellite
View from above satellite

Ground track
Ground track

The orbit data is extracted from the following two-line orbital elements,

1 28888U 05042A   19280.77988624 0.00015400  00000-0  67620-4 0    04
2 28888  96.8765 316.8310 0139798 167.1440 192.8559 15.71168211    01
Epoch (UTC): 07 October 2019 18:43:02
Eccentricity: 0.0139798
inclination: 96.8765°
perigee height: 261 km
apogee height: 450 km
right ascension of ascending node: 316.8310°
argument of perigee: 167.1440°
revolutions per day: 15.71168211
mean anomaly at epoch: 192.8559°
orbit number at epoch: 0

The dashed part of the orbit path shows where the satellite is in the earth's shadow,  

DLR